Regional Weather Roundup
Issued by NWS

Home | Current Version | Previous Version | Graphics & Text | Print | Product List | Glossary On
Versions: 1 2 3 4 5 6 7 8 9 10 11 12 13 14 15 16 17 18 19 20 21 22 23 24 25 26 27 28
000
ASUS45 KTFX 290610
RWRMT
MONTANA REGIONAL WEATHER ROUNDUP
NATIONAL WEATHER SERVICE GREAT FALLS MT
1200 AM MDT FRI APR 29 2016

NOTE: "FAIR" INDICATES FEW OR NO CLOUDS BELOW 12000 FEET WITH NO
SIGNIFICANT WEATHER AND/OR OBSTRUCTIONS TO VISIBILITY.

MTZ001>007-043-290700-
WEST OF THE DIVIDE

CITY           SKY/WX    TMP DP  RH WIND       PRES   REMARKS
KALISPELL      CLOUDY    46  32  58 NE7       30.00F
MISSOULA       CLOUDY    39  31  72 CALM      30.01F
BUTTE          CLOUDY    34  28  79 S9G16     29.98F WCI  27
MULLAN PASS    CLOUDY    31  29  92 E6        29.96F WCI  25
ANACONDA         N/A     34  28  80 CALM      29.98F
DEER LODGE       N/A     36  28  75 W8        29.99F WCI  29
EUREKA           N/A     43  32  65 CALM      30.03S
HAMILTON         N/A     37  36  93 SE5       29.98F
LIBBY            N/A     43  34  70 SE3       30.02F
PLAINS           N/A     40  33  76 CALM      30.00F
$$

MTZ008-052>055-290700-
SOUTHWEST MONTANA

CITY           SKY/WX    TMP DP  RH WIND       PRES   REMARKS
BOZEMAN        CLOUDY    39  25  57 E6        30.00S
DILLON         CLOUDY    35  27  72 NE5       29.96F
ENNIS          CLOUDY    36  28  75 NE8       30.02F WCI  29
THREE FORKS      N/A     39  30  70 CALM      30.00F
TWIN BRIDGES     N/A     38  25  60 N14       29.96F WCI  30
$$

MTZ009-010-012-014-046-048-049-054-290700-
EAST SLOPES AND CENTRAL MONTANA

CITY           SKY/WX    TMP DP  RH WIND       PRES   REMARKS
CUT BANK       CLOUDY    37  35  92 S6        30.07F
GREAT FALLS    CLOUDY    38  33  82 E9        30.04F WCI  31
HELENA         CLOUDY    39  32  76 N5        30.01F
CHOTEAU          N/A     37  37 100 N6        30.06F
CONRAD           N/A     39  39 100 E3        30.08F
$$

MTZ011-013-016-021-045-047-050-051-290700-
NORTH CENTRAL MONTANA

CITY           SKY/WX    TMP DP  RH WIND       PRES   REMARKS
HAVRE          CLOUDY    43  38  82 NW5       30.10F
LEWISTOWN      CLOUDY    37  32  82 E9        30.06F WCI  30
N BAR RANCH    CLOUDY    34  32  93 CALM      30.09S
CHINOOK          N/A     43  36  75 E3        30.11F
$$

MTZ017>020-022>027-061-062-290700-
NORTHEAST MONTANA

CITY           SKY/WX    TMP DP  RH WIND       PRES   REMARKS
GLASGOW        PTCLDY    40  33  76 S7        30.13F
JORDAN           N/A     41  36  82 SE6       30.12S
SIDNEY         CLOUDY    45  30  57 N3        30.16S
WOLF POINT     CLOUDY    45  35  68 CALM      30.15S
PLENTYWOOD       N/A     45  21  39 NE6       30.17S
POPLAR           N/A     46  30  53 E6        30.16R
SCOBEY           N/A     44  21  40 E3        30.13S
$$

MTZ028>42-056>058-290700-
SOUTHCENTRAL AND SOUTHEAST MONTANA

CITY           SKY/WX    TMP DP  RH WIND       PRES   REMARKS
BAKER          CLOUDY    38  34  85 S3        30.15S
BILLINGS       CLOUDY    36  34  92 NE7       30.07F WCI  30
LIVINGSTON     CLOUDY    35  28  75 E12       30.02F WCI  27
MILES CITY     CLOUDY    40  34  79 CALM      30.13S
EKALAKA          N/A     35  31  86 E3        30.08F
FORSYTH          N/A     39  39 100 E5        30.12F
LAUREL           N/A     33  25  73 CALM      30.04F
ROUNDUP          N/A     37  33  85 CALM      29.99F
$$

REGIONAL REPORTS...DAKOTAS

CITY           SKY/WX    TMP DP  RH WIND       PRES   REMARKS
WILLISTON      CLOUDY    42  28  57 NE5       30.17R
MINOT          MOCLDY    45  20  36 NE7       30.19R
DICKINSON      CLOUDY    40  27  59 E6        30.12S
BEACH          CLOUDY    37  37 100 NE5       30.17S
CROSBY           N/A     36  19  51 CALM      30.21S
TIOGA            N/A     36  21  55 E6        30.23S WCI  31
WATFORD CITY   MOCLDY    41  27  56 E6        30.16S
BISMARCK       CLOUDY    44  31  60 NE9       30.16S
GRAND FORKS    PTCLDY    34  27  75 N6        30.17R WCI  29
FARGO          CLOUDY    42  28  57 N6        30.13S
BUFFALO SD       N/A     38  33  82 NW5       30.07F
RAPID CITY     CLOUDY    37  34  89 NE5       30.13S
$$

REGIONAL REPORTS...WYOMING/IDAHO/WASHINGTON

CITY           SKY/WX    TMP DP  RH WIND       PRES   REMARKS
GILLETTE       CLOUDY    35  33  92 CALM      30.08F
SHERIDAN       CLOUDY    37  32  82 CALM      30.07F
BUFFALO WY       N/A    N/A N/A N/A MISG      30.07F
CODY           CLOUDY    34  30  86 NE3       30.03F
YELLOWSTONE LA   N/A     29  22  75 E3        29.96F
IDAHO FALLS    CLOUDY    39  27  62 CALM      29.90R
SALMON         PTCLDY    39  32  75 N7        29.95F
BOISE          MOCLDY    54  34  46 N9        29.87R
SPOKANE        CLOUDY    54  34  46 E8        29.96S
$$

REGIONAL REPORTS...ALBERTA

CITY           SKY/WX    TMP DP  RH WIND       PRES   REMARKS
EDMONTON       PTCLDY    50  30  46 S15       29.98F
CALGARY        MOCLDY    43  28  56 S10       30.02F
LETHBRIDGE     MOCLDY    36  34  93 SW7       30.05F WCI  30
MEDICINE HAT   CLEAR     41  34  75 S3        30.07F
WATERTON GATE    N/A     34  30  86 N3          N/A
CARDSTON         N/A     34  30  86 S3          N/A
MILK RIVER       N/A     37  36  93 S2          N/A
$$

REGIONAL REPORTS...SASKATCHEWAN

CITY           SKY/WX    TMP DP  RH WIND       PRES   REMARKS
SWIFT CURRENT  CLOUDY    39  23  52 SE12      30.11F WCI  32
REGINA         PTCLDY    43  18  36 E12       30.20S
SASKATOON      PTCLDY    45  27  49 SE8       30.19S
CYPRESS HILLS    N/A     37  28  70 S5          N/A
VAL MARIE        N/A     34  28  80 N2          N/A
ROCKGLEN         N/A     43  21  42 E6          N/A
ASSINIBOIA       N/A     43  32  65 SE6         N/A
$$




USA.gov is the U.S. government's official web portal to all federal, state and local government web resources and services.